OSCAR 7 (AO-7) 1 07530U 74089B 26175.31411375 -.00000038 00000+0 50599-4 0 9992 2 07530 101.9899 188.6350 0012633 116.8871 256.4434 12.53698145361419 PHASE 3B (AO-10) 1 14129U 83058B 26174.68191131 -.00000085 00000+0 00000+0 0 9993 2 14129 25.9176 218.4895 6008564 117.4551 314.9460 2.05872578295624 UOSAT 2 (UO-11) 1 14781U 84021B 26174.86625253 .00001092 00000+0 11662-3 0 9993 2 14781 97.8059 140.3663 0008218 151.7331 208.4334 14.90797521258121 LUSAT (LO-19) 1 20442U 90005G 26175.01929488 .00000083 00000+0 46428-4 0 9996 2 20442 98.8847 197.0132 0011515 180.6950 179.4219 14.34124888903371 EYESAT A (AO-27) 1 22825U 93061C 26175.13210451 .00000067 00000+0 42631-4 0 9998 2 22825 98.6877 242.5432 0009527 81.9186 278.3077 14.30943872707991 ITAMSAT (IO-26) 1 22826U 93061D 26175.17934778 .00000066 00000+0 41553-4 0 9999 2 22826 98.6825 242.5085 0009946 66.8438 293.3792 14.31370976708314 RADIO ROSTO (RS15) 1 23439U 94085A 26175.03372988 -.00000054 00000+0 -31342-3 0 9994 2 23439 64.8185 292.1434 0156169 2.6089 357.5616 11.27583476296670 JAS-2 (FO-29) 1 24278U 96046B 26175.18698092 -.00000018 00000+0 14758-4 0 9990 2 24278 98.5235 23.0999 0350920 78.3218 285.7074 13.53274665474119 TECHSAT 1B (GO-32) 1 25397U 98043D 26174.94820125 .00000038 00000+0 36579-4 0 9995 2 25397 99.0070 167.8775 0001389 150.1095 210.0162 14.24429485452293 ISS (ZARYA) 1 25544U 98067A 26175.15560926 .00007363 00000+0 13975-3 0 9991 2 25544 51.6326 265.6000 0004427 224.4953 135.5681 15.49396189572839 PCSAT (NO-44) 1 26931U 01043C 26175.21369351 .00000060 00000+0 53323-4 0 9995 2 26931 67.0495 226.0984 0006053 264.9653 95.0758 14.31958084291452 SAUDISAT 1C (SO-50) 1 27607U 02058C 26175.03336570 .00000757 00000+0 10682-3 0 9993 2 27607 64.5518 107.8036 0075096 261.1879 98.0718 14.83059331265473 CUTE-1 (CO-55) 1 27844U 03031E 26175.27271409 .00000238 00000+0 12196-3 0 9999 2 27844 98.6736 183.7425 0009958 157.9715 202.1894 14.24339464192684 CUBESAT XI-IV (CO-57) 1 27848U 03031J 26173.99963119 .00000177 00000+0 96661-4 0 9998 2 27848 98.6767 182.1936 0009423 179.7329 180.3856 14.23623408192208 MOZHAETS 4 (RS22) 1 27939U 03042A 26175.29560539 .00000339 00000+0 60456-4 0 9998 2 27939 98.3477 359.8550 0009987 244.1261 288.9539 14.73475746216593 CUBESAT XI-V 1 28895U 05043F 26175.26515780 .00001196 00000+0 19578-3 0 9998 2 28895 98.2991 331.0356 0014129 178.0583 182.0681 14.72647893102798 CUTE-1.7+APD II (CO-65) 1 32785U 08021C 26175.20916588 .00004434 00000+0 28054-3 0 9992 2 32785 97.8279 156.7737 0009137 17.8170 342.3376 15.09511070986256 SEEDS II (CO-66) 1 32791U 08021J 26175.25105171 .00016147 00000+0 50931-3 0 9995 2 32791 97.7521 173.4867 0000305 266.0101 94.1105 15.32959787988376 YUBILEINY (RS30) 1 32953U 08025A 26175.26100919 .00000088 00000+0 56238-3 0 9998 2 32953 82.5048 351.0390 0018628 297.6731 62.2459 12.43179909820577 KKS-1 (KISEKI) 1 33499U 09002H 26175.13811603 .00001065 00000+0 13745-3 0 9997 2 33499 98.1187 97.6905 0006358 268.3777 91.6707 14.83139073937224 SWISSCUBE 1 35932U 09051B 26175.01037925 .00000754 00000+0 15859-3 0 9991 2 35932 98.4031 83.0175 0006447 180.0638 180.0563 14.62492428890158 BEESAT-1 1 35933U 09051C 26174.20193553 .00000616 00000+0 13339-3 0 9990 2 35933 98.3960 81.8178 0004598 195.0342 165.0722 14.61728503890066 ITUPSAT1 1 35935U 09051E 26175.29429429 .00000610 00000+0 13593-3 0 9992 2 35935 98.4043 82.1112 0006604 208.5040 151.5799 14.60449650889770 XIWANG-1 (HOPE-1) 1 36122U 09072B 26175.23580147 .00000174 00000+0 57304-3 0 9996 2 36122 100.4025 128.9553 0006977 214.1465 145.9200 13.16439735793937 O/OREOS (USA 219) 1 37224U 10062C 26175.09396884 .00001743 00000+0 17008-3 0 9998 2 37224 71.9702 64.6944 0012813 48.3372 311.8893 14.93768885117675 JUGNU 1 37839U 11058B 26174.94924012 .00000388 00000+0 62833-4 0 9990 2 37839 19.9603 267.3482 0018533 150.5150 4.5959 14.13778314759988 SRMSAT 1 37841U 11058D 26175.23753896 .00000359 00000+0 51087-4 0 9993 2 37841 19.9735 16.7943 0011707 281.6878 234.4486 14.11576866758810 STRAND-1 1 39090U 13009E 26175.22704534 .00000240 00000+0 95059-4 0 9999 2 39090 98.3925 355.2881 0008107 202.3684 157.7151 14.37166829698076 ZACUBE-1 (TSHEPISOSAT) 1 39417U 13066B 26175.13942580 .00002435 00000+0 19122-3 0 9994 2 39417 97.8056 137.5120 0041739 223.8943 135.8962 15.01220001681770 GOMX-1 1 39430U 13066Q 26175.26760003 .00001230 00000+0 18985-3 0 9999 2 39430 97.6486 15.2832 0129949 55.0762 306.2573 14.69479948670955 CUBEBUG-2 (LO-74) 1 39440U 13066AA 26175.16357250 .00003255 00000+0 30265-3 0 9999 2 39440 97.8904 124.1710 0057788 6.1369 354.0545 14.93813506678035 FUNCUBE-1 (AO-73) 1 39444U 13066AE 26174.48649236 .00004811 00000+0 29949-3 0 9991 2 39444 97.8270 146.0634 0036320 179.4025 180.7253 15.09547873680611 UWE-3 1 39446U 13066AG 26174.83273869 .00003944 00000+0 33997-3 0 9991 2 39446 97.8705 130.9512 0046882 298.7267 60.9247 14.97073410678571 UNISAT-6 1 40012U 14033C 26175.19283425 .00002093 00000+0 22825-3 0 9998 2 40012 97.7884 327.7817 0045899 46.7999 313.7038 14.88275685647204 DUCHIFAT-1 1 40021U 14033M 26175.11803071 .00103515 00000+0 10097-2 0 9993 2 40021 98.0460 235.2586 0001858 108.0960 252.0500 15.65879628656832 QB50P1 1 40025U 14033R 26175.26774138 .00006977 00000+0 34307-3 0 9999 2 40025 98.0965 186.9101 0008520 189.6897 170.4172 15.18350991654109 LILACSAT-2 1 40908U 15049K 26175.30212674 .00015960 00000+0 26996-3 0 9991 2 40908 97.4643 212.4145 0006111 212.6899 147.3975 15.51649967596853 FOX-1A (AO-85) 1 40967U 15058D 26174.92582050 .00001640 00000+0 15604-3 0 9995 2 40967 64.7750 258.0417 0130850 53.9672 307.3482 14.90994015114570 CAS-2T & KS-1Q 1 41847U 16066G 26175.16662429 .00001410 00000+0 20428-3 0 9994 2 41847 98.3820 250.8232 0342895 108.3774 255.5023 14.44714489505805 RADFXSAT (FOX-1B) 1 43017U 17073E 26175.15325566 .00006039 00000+0 26536-3 0 9999 2 43017 97.4700 42.2254 0148774 304.9888 53.7450 15.12802211466445 DIWATA-2B 1 43678U 18084H 26175.30540476 .00001720 00000+0 14163-3 0 9996 2 43678 98.1204 11.8236 0012945 147.7139 212.4879 15.00478828417286 ES'HAIL 2 1 43700U 18090A 26175.17555332 .00000152 00000+0 00000+0 0 9990 2 43700 0.0162 323.1081 0002080 165.5076 232.7069 1.00273279 27743 FOX-1CLIFF (AO-95) 1 43770U 18099N 26175.15597508 .00009674 00000+0 36928-3 0 9995 2 43770 97.4382 235.3767 0007299 330.8169 29.2661 15.26836482414286 ITASAT 1 43786U 18099AE 26174.87224046 .00005463 00000+0 26291-3 0 9998 2 43786 97.4030 226.2505 0011386 335.8240 24.2459 15.19126206413927 JY1SAT (JO-97) 1 43803U 18099AX 26175.14190018 .00015119 00000+0 46379-3 0 9998 2 43803 97.4133 238.0008 0004834 230.5921 129.4894 15.33842498414697 UWE-4 1 43880U 18111E 26175.07461358 .00030603 00000+0 61683-3 0 9998 2 43880 97.5841 103.7842 0004486 307.8238 52.2604 15.46500339411840 TIANYAN 01 1 44881U 19093C 26175.24717679 .00000713 00000+0 86392-4 0 9993 2 44881 97.7530 247.3073 0015062 66.0659 294.2133 14.86529999352466 RS-44 & BREEZE-KM R/B 1 44909U 19096E 26175.19786970 .00000035 00000+0 87621-4 0 9994 2 44909 82.5224 335.0455 0218408 127.8374 234.2715 12.79748960303240 SALSAT 1 46495U 20068K 26175.27497564 .00006623 00000+0 23163-3 0 9993 2 46495 97.8854 178.7714 0007801 277.9982 82.0372 15.29885766316443 XW-3 (CAS-9) 1 50466U 21131B 26175.27419363 .00000328 00000+0 11504-3 0 9991 2 50466 98.4979 267.6255 0005374 80.3481 279.8315 14.41362651236138 GREENCUBE (IO-117) 1 53109U 22080E 26174.72102765 -.00000003 00000+0 00000+0 0 9992 2 53109 70.1445 295.9726 0008926 288.1418 71.8270 6.42583215 92482 UMKA 1 (RS40S) 1 57172U 23091G 26175.26553454 .00005303 00000+0 24248-3 0 9995 2 57172 97.5050 233.9355 0014343 95.8193 264.4678 15.20887439165084 CUBESX-HSE 3 (RS42S) 1 57178U 23091N 26175.23126634 .00011769 00000+0 39012-3 0 9992 2 57178 97.5092 240.9077 0011738 72.8879 287.3647 15.31367077165506 MONITOR-3 (RS58S) 1 57180U 23091Q 26175.27135975 .00009778 00000+0 36018-3 0 9997 2 57180 97.5084 238.7696 0012909 78.9020 281.3670 15.27964376165373 MONITOR-4 (RS57S) 1 57182U 23091S 26175.25002224 .00010071 00000+0 36991-3 0 9995 2 57182 97.5078 238.7196 0012896 79.2850 280.9840 15.28050072165377 MONITOR-2 (RS39S) 1 57184U 23091U 26175.22982264 .00004583 00000+0 22211-3 0 9996 2 57184 97.5072 233.4672 0012769 89.8428 270.4270 15.18966612165029 SVYATOBOR 1 (RS60S) 1 57187U 23091X 26175.26921992 .00008545 00000+0 32749-3 0 9993 2 57187 97.5090 239.1255 0010664 73.1213 287.1194 15.26718812165398 VIZARD-METEO (RS38S) 1 57189U 23091Z 26175.24800432 .00015134 00000+0 43036-3 0 9991 2 57189 97.5092 244.8751 0007800 56.2323 303.9663 15.36219101165776 POLYTECH-UNIVERSE 3 (R*) 1 57191U 23091AB 26175.25608582 .00004491 00000+0 21610-3 0 9995 2 57191 97.5048 232.9975 0017073 104.5153 255.7977 15.19170539165029 UTMN 2 (RS27S) 1 57203U 23091AP 26175.24501419 .00011616 00000+0 37560-3 0 9997 2 57203 97.5088 242.5640 0008869 62.5660 297.6483 15.32200560165628 KUZGTU 1 (RS47S) 1 57217U 23091AV 26175.22862594 .00010234 00000+0 35426-3 0 9998 2 57217 97.5065 239.7805 0012074 76.3028 283.9556 15.29995720165458 SONATE-2 1 59112U 24043Q 26175.26319483 .00037305 00000+0 47564-3 0 9994 2 59112 97.5534 326.0961 0007286 172.1675 187.9696 15.59193494128997 MESAT1 1 60209U 24125G 26175.14632091 .00056442 00000+0 59813-3 0 9997 2 60209 97.2288 32.7906 0010249 178.6404 181.4885 15.63886382110656 OOV-CUBE (TUBSAT-30) 1 60240U 24128F 26175.17509553 .00001358 00000+0 11477-3 0 9994 2 60240 61.9924 201.2058 0043766 135.3131 225.1501 15.02794999107162 COLIBRI-S (RS67S) 1 61746U 24199M 26175.23778606 .00019381 00000+0 37223-3 0 9990 2 61746 97.2991 49.1570 0006446 244.1311 115.9275 15.47977388138501 HORS 3 (RS81S) 1 61753U 24199U 26175.23164104 .00031841 00000+0 46819-3 0 9996 2 61753 97.2974 51.2144 0004088 236.4114 123.6750 15.55402500138654 HORS 4 (RS82S) 1 61754U 24199V 26175.23479727 .00044147 00000+0 54009-3 0 9990 2 61754 97.2919 52.4652 0003946 218.6754 141.4221 15.60272291138744 SIT-2086 1 61764U 24199AF 26175.28285332 .00031078 00000+0 48931-3 0 9999 2 61764 97.2935 51.7183 0005400 217.6201 142.4676 15.53517657135536 HYPERVIEW 1G (RS66S) 1 61772U 24199AP 26175.23430535 .00142836 00000+0 84550-3 0 9992 2 61772 97.2862 55.3183 0005460 194.3108 165.8005 15.77659716135788 ALTAIR (RS65S) 1 61779U 24199AW 26175.27312005 .00009620 00000+0 26639-3 0 9991 2 61779 97.3029 44.5774 0010760 281.6639 78.3398 15.37130686138204 ASRTU-1 (AO-123) 1 61781U 24199AY 26175.26726105 .00006696 00000+0 19440-3 0 9995 2 61781 97.3000 43.8743 0011938 285.0984 74.8939 15.35762632135011 SAMSAT-IONOSPHERE (RS7*) 1 61784U 24199BB 26175.25339085 .00043888 00000+0 58068-3 0 9997 2 61784 97.2942 51.3092 0006320 240.5782 119.4843 15.58180702138661 RTU MIREA 1 (RS51S) 1 61785U 24199BC 26175.26184879 .00053652 00000+0 61831-3 0 9990 2 61785 97.2931 52.1865 0006202 231.8723 128.1977 15.61779261135574 TEVEL2-4 1 63213U 25052D 26175.15869639 .00016841 00000+0 50050-3 0 9999 2 63213 97.3899 71.5621 0004948 90.1777 270.0033 15.34822563 71181 TEVEL2-5 1 63214U 25052E 26174.98437719 .00016638 00000+0 49735-3 0 9992 2 63214 97.3894 71.3335 0004879 91.6440 268.5362 15.34639902 71150 TEVEL2-6 1 63215U 25052F 26175.19247918 .00016897 00000+0 50551-3 0 9992 2 63215 97.3902 71.5263 0004712 91.8606 268.3176 15.34612208 71189 TEVEL2-1 1 63217U 25052H 26174.96304379 .00015378 00000+0 46842-3 0 9994 2 63217 97.3870 70.9129 0004942 100.4498 259.7302 15.34061026 71136 TEVEL2-3 1 63218U 25052J 26174.95743908 .00015464 00000+0 47017-3 0 9990 2 63218 97.3876 70.9298 0004852 100.9401 259.2388 15.34118051 71139 TEVEL2-2 1 63219U 25052K 26174.96331783 .00015328 00000+0 46676-3 0 9995 2 63219 97.3875 70.9156 0004967 100.9332 259.2469 15.34070494 71130 TEVEL2-9 1 63237U 25052AD 26175.21077817 .00014542 00000+0 47113-3 0 9993 2 63237 97.3939 70.5233 0008236 111.7825 248.4294 15.32082358 71106 TEVEL2-7 1 63238U 25052AE 26174.66511354 .00012446 00000+0 40771-3 0 9995 2 63238 97.3941 69.8919 0008290 113.4971 246.7143 15.31764216 71016 TEVEL2-8 1 63239U 25052AF 26175.19604222 .00014524 00000+0 47520-3 0 9990 2 63239 97.3938 70.3983 0008326 112.7098 247.5025 15.31766604 71092 INNOSAT 16 (RS92S7) 1 64878U 25155C 26175.21749260 .00004876 00000+0 19495-3 0 9998 2 64878 97.4563 142.3227 0011342 151.9453 208.2399 15.25520408 81744 GEOSCAN 6 (RS92S6) 1 64879U 25155D 26175.24399507 .00008774 00000+0 30193-3 0 9996 2 64879 97.4554 143.8232 0009139 140.6724 219.5182 15.30263354 81840 GEOSCAN 1 (RS92S1) 1 64880U 25155E 26175.24367733 .00009758 00000+0 32923-3 0 9990 2 64880 97.4551 143.9770 0009087 140.4852 219.7053 15.30871421 81859 239ALFEROV (RS61S) 1 64881U 25155F 26175.26841962 .00013161 00000+0 41329-3 0 9997 2 64881 97.4550 144.5873 0008825 138.2665 221.9252 15.33103915 81895 GEOSCAN 2 (RS92S2) 1 64890U 25155Q 26175.23611221 .00009502 00000+0 31802-3 0 9996 2 64890 97.4550 144.1248 0008774 129.0864 231.1159 15.31141993 81861 GEOSCAN 5 (RS92S5) 1 64891U 25155R 26175.25598125 .00012632 00000+0 39300-3 0 9995 2 64891 97.4543 144.7149 0007608 141.6216 218.5569 15.33419871 81900 GEOSCAN 4 (RS92S4) 1 64892U 25155S 26175.23945726 .00012789 00000+0 39589-3 0 9999 2 64892 97.4547 144.7488 0007668 141.2322 218.9472 15.33577998 81903 GEOSCAN 3 (RS92S3) 1 64893U 25155T 26175.23102742 .00016010 00000+0 46418-3 0 9993 2 64893 97.4534 145.1903 0007640 140.0007 220.1800 15.35597593 81932 INNOSAT 3 (RS92S0) 1 64894U 25155U 26175.24698907 .00033350 00000+0 72419-3 0 9994 2 64894 97.4484 146.9134 0007467 134.7563 225.4294 15.44270613 82056 KNACKSAT-2 1 67683U 98067XZ 26174.62737886 .00038628 00000+0 46309-3 0 9998 2 67683 51.6285 262.0701 0008762 244.0918 115.9173 15.60494137 21288